This is the latest recevied weather packets stored in our database for station/object OK1VOF-13. If no packets are shown the sender has not sent any weather packets the latest 10 day(s).
| Time | Temp. | Humidity | Pressure | Rain* | Wind** | Luminosity | Snow |
|---|---|---|---|---|---|---|---|
| 1787988609 | 17.78° C | 100% | 1018.4 hPa | 44.96 mm | - | - | - |
| 1787988307 | 17.78° C | 100% | 1018.4 hPa | 45.47 mm | - | - | - |
| 1787987099 | 17.78° C | 100% | 1018.1 hPa | 82.8 mm | - | - | - |
| 1787985552 | 17.78° C | 100% | 1018.4 hPa | 83.31 mm | - | - | - |
| 1787984843 | 17.78° C | 100% | 1018.2 hPa | 39.37 mm | - | - | - |
| 1787982646 | 16.67° C | 100% | 1017.9 hPa | 0 mm | - | - | - |
| 1787982049 | 16.67° C | 100% | 1017.8 hPa | 0 mm | - | - | - |
| 1787981451 | 16.11° C | 100% | 1017.8 hPa | 0 mm | - | - | - |
| 1787981146 | 16.11° C | 100% | 1017.8 hPa | 0 mm | - | - | - |
| 1787980847 | 16.11° C | 100% | 1017.8 hPa | 0 mm | - | - | - |
| 1787979951 | 16.11° C | 100% | 1017.3 hPa | 0 mm | - | - | - |
| 1787979054 | 15.56° C | 100% | 1017.5 hPa | 0 mm | - | - | - |
| 1787978164 | 15.56° C | 100% | 1017.5 hPa | 0 mm | - | - | - |
| 1787977866 | 15.56° C | 100% | 1017.4 hPa | 0 mm | - | - | - |
| 1787977567 | 15.56° C | 100% | 1017.4 hPa | 0 mm | - | - | - |
| 1787977268 | 15.56° C | 100% | 1017.4 hPa | 0 mm | - | - | - |
| 1787975177 | 16.11° C | 100% | 1017 hPa | 0 mm | - | - | - |
| 1787974579 | 16.11° C | 100% | 1015.9 hPa | 0 mm | - | - | - |
| 1787973982 | 16.11° C | 100% | 1015.9 hPa | 0 mm | - | - | - |
| 1787973377 | 16.11° C | 100% | 1015.7 hPa | 0 mm | - | - | - |
| 1787973082 | 16.11° C | 100% | 1015.8 hPa | 0.25 mm | - | - | - |
| 1787972773 | 16.11° C | 100% | 1016.3 hPa | 0.25 mm | - | - | - |
| 1787970968 | 16.11° C | 100% | 1017.1 hPa | 0.76 mm | - | - | - |
| 1787969452 | 16.67° C | 100% | 1016.9 hPa | 3.81 mm | - | - | - |
| 1787968847 | 16.67° C | 100% | 1016.8 hPa | 4.32 mm | - | - | - |
* Rain latest hour (hover to see other rain measurements)
** Current wind speed in m/s (hover to see current wind gust speed)